Date,TemperatureHighF,TemperatureAvgF,TemperatureLowF,DewpointHighF,DewpointAvgF,DewpointLowF,HumidityHigh,HumidityAvg,HumidityLow,PressureMaxIn,PressureMinIn,WindSpeedMaxMPH,WindSpeedAvgMPH,GustSpeedMaxMPH,PrecipitationSumIn
2013-1-1,36,30,0,33,26,0,100,86,81,30.35,28.73,17,6,21,27.48
2013-1-2,43,34,28,30,26,24,85,73,57,28.99,28.86,12,4,17,0.00
2013-1-3,41,33,28,29,24,21,81,71,56,29.13,28.99,15,3,18,0.00
2013-1-4,46,38,27,31,26,20,79,64,50,29.13,28.96,12,3,15,0.00
2013-1-5,49,41,35,35,31,24,82,68,55,29.00,28.84,15,4,19,0.00
2013-1-6,50,39,33,30,25,22,70,59,40,29.12,28.99,10,2,13,0.00
2013-1-7,51,40,29,30,25,19,68,56,40,29.00,28.75,14,3,18,0.00
2013-1-8,56,46,36,44,36,28,84,69,53,28.85,28.69,12,3,15,0.01
2013-1-9,48,47,45,45,44,42,92,89,84,28.99,28.78,18,5,23,0.26
2013-1-10,57,51,47,55,49,45,95,92,88,28.78,28.49,15,4,18,0.18
2013-1-11,68,56,46,51,47,43,91,73,50,28.53,28.35,18,6,23,0.00
2013-1-12,57,38,26,43,26,16,76,62,38,28.76,28.52,21,8,26,27.10
2013-1-13,31,26,21,16,14,11,68,60,50,29.03,28.71,18,6,23,0.00
2013-1-14,37,29,23,15,13,10,59,51,40,29.09,28.95,16,4,21,0.00
2013-1-15,35,28,23,21,16,13,73,61,48,28.98,28.87,13,3,17,0.00
2013-1-16,47,34,22,25,19,12,69,55,35,28.90,28.79,13,2,16,0.00
2013-1-17,53,42,33,34,30,24,76,62,45,29.18,28.90,15,3,19,0.00
2013-1-18,59,46,33,35,30,25,75,56,37,29.14,28.85,16,4,20,0.00
2013-1-19,62,49,41,38,34,30,69,57,40,28.89,28.77,13,3,17,0.00
2013-1-20,63,48,37,40,32,21,67,55,39,28.95,28.77,16,3,21,0.00
2013-1-21,43,34,25,21,16,12,59,48,36,29.09,28.93,16,4,20,0.00
2013-1-22,58,42,29,34,24,15,66,50,34,28.95,28.82,14,2,17,0.00
2013-1-23,67,50,36,50,40,30,83,69,52,28.91,28.77,8,1,11,0.00
2013-1-24,50,39,32,42,29,24,78,67,62,28.92,28.80,14,4,17,0.00
2013-1-25,49,38,29,33,28,24,85,70,51,28.93,28.79,12,3,18,0.00
2013-1-26,48,41,33,42,35,26,88,79,69,28.90,28.72,13,3,17,0.00
2013-1-27,67,55,44,58,51,41,95,86,72,28.75,28.52,18,6,23,0.00
2013-1-28,72,66,59,63,60,56,92,81,70,28.61,28.42,22,7,30,0.00
2013-1-29,68,56,41,62,52,35,92,86,73,28.43,28.16,18,5,22,0.78
2013-1-30,45,39,34,35,28,19,81,65,37,28.74,28.36,27,9,33,0.00
2013-1-31,56,40,28,34,24,15,70,55,32,29.09,28.70,20,4,25,0.00
2013-2-1,51,35,22,27,18,10,63,50,33,29.09,28.80,15,4,19,0.00
2013-2-2,57,44,33,38,31,25,74,61,43,28.99,28.83,15,2,18,28.70
2013-2-3,61,50,36,37,31,27,71,51,34,28.99,28.59,14,4,18,0.00
2013-2-4,65,56,45,42,33,28,54,42,29,28.64,28.51,14,4,17,0.00
2013-2-5,65,42,37,45,30,27,71,61,47,28.70,28.61,5,0,6,0.00
2013-2-6,58,56,54,55,53,51,92,90,89,28.57,28.54,18,6,22,28.70
2013-2-7,66,53,44,62,49,35,96,85,70,28.87,28.47,20,6,27,0.00
2013-2-8,54,44,34,38,33,29,81,65,45,29.00,28.80,14,3,17,0.00
2013-2-9,48,43,40,46,38,32,94,81,68,28.81,28.37,18,6,24,0.01
2013-2-10,61,51,44,49,35,26,94,58,29,28.74,28.34,23,6,29,0.04
2013-2-11,58,45,35,35,26,23,62,48,34,28.90,28.74,14,4,17,0.00
2013-2-12,45,36,33,32,30,25,92,77,47,28.76,28.63,15,4,20,0.52
2013-2-13,54,40,32,43,33,28,93,76,44,28.76,28.66,12,2,15,0.23
2013-2-14,62,46,32,41,33,27,81,63,44,28.91,28.67,18,4,22,0.00
2013-2-15,43,38,30,36,24,18,81,59,37,29.09,28.90,16,5,20,0.00
2013-2-16,54,41,29,36,28,23,87,63,40,29.06,28.74,14,3,17,0.04
2013-2-17,70,54,37,38,32,28,72,47,23,28.74,28.42,22,6,27,0.00
2013-2-18,57,53,39,49,36,24,81,56,38,28.84,28.31,32,9,39,29.55
2013-2-19,59,45,32,35,26,22,70,48,33,29.01,28.84,15,4,18,0.09
2013-2-20,44,37,34,34,31,25,91,82,48,28.86,28.56,23,8,29,0.47
2013-2-21,37,33,24,34,30,18,92,89,77,28.69,28.36,26,4,32,0.46
2013-2-22,41,28,21,28,20,15,80,70,55,28.83,28.67,15,2,18,0.08
2013-2-23,47,34,24,31,24,18,80,68,48,28.80,28.57,12,2,15,0.00
2013-2-24,63,49,34,41,34,26,74,59,44,28.58,28.39,18,6,26,0.00
2013-2-25,51,39,33,38,35,31,93,87,57,28.49,28.18,25,7,32,0.85
2013-2-26,46,38,33,36,31,27,93,77,59,28.62,28.31,27,9,34,0.11
2013-2-27,46,36,28,32,27,23,83,69,50,28.89,28.60,26,8,33,0.00
2013-2-28,49,38,31,34,28,25,78,66,49,28.94,28.88,21,7,30,0.00
2013-3-1,47,36,28,34,27,23,85,71,56,29.01,28.89,23,5,29,0.00
2013-3-2,52,38,25,32,26,20,82,63,44,29.07,28.84,10,2,13,0.00
2013-3-3,71,53,37,38,33,27,68,48,29,28.84,28.29,20,6,25,0.00
2013-3-4,67,56,44,45,37,31,74,50,37,28.75,28.21,24,8,30,0.00
2013-3-5,50,42,34,36,24,17,79,51,32,29.07,28.75,25,8,31,0.02
2013-3-6,54,44,30,29,22,19,64,44,29,29.12,28.85,14,3,18,0.00
2013-3-7,71,57,40,31,27,21,47,33,21,28.85,28.70,19,7,26,0.00
2013-3-8,62,57,53,53,44,30,85,65,37,28.79,28.59,19,8,23,0.00
2013-3-9,61,58,53,58,54,48,91,87,78,28.61,28.33,21,5,26,0.17
2013-3-10,57,41,36,48,33,27,88,73,56,28.76,28.35,24,9,30,0.01
2013-3-11,57,42,29,30,26,19,76,55,32,28.76,28.66,17,5,21,0.00
2013-3-12,62,49,37,39,30,24,62,49,36,29.02,28.69,15,3,19,0.00
2013-3-13,65,51,36,35,30,26,68,47,28,29.13,28.96,13,2,17,0.00
2013-3-14,80,61,46,46,38,31,57,44,29,28.98,28.79,16,4,20,31.81
2013-3-15,83,68,54,48,45,41,66,44,26,28.80,28.47,17,6,21,0.00
2013-3-16,80,67,52,51,46,38,58,47,34,28.52,28.40,16,6,20,0.00
2013-3-17,52,44,41,38,36,33,81,72,57,28.55,28.37,15,4,19,0.00
2013-3-18,65,50,41,42,35,26,87,62,28,28.73,28.34,15,4,21,0.00
2013-3-19,62,53,41,37,30,24,68,43,29,28.91,28.67,16,3,20,0.00
2013-3-20,60,48,36,35,30,26,73,50,34,29.06,28.70,15,4,20,0.00
2013-3-21,60,49,43,42,33,27,71,55,44,28.70,28.26,27,8,33,0.00
2013-3-22,47,43,39,38,36,33,83,76,69,28.59,28.38,18,6,24,0.00
2013-3-23,45,42,36,39,37,33,89,85,73,28.60,28.40,22,5,27,31.82
2013-3-24,46,36,30,33,25,19,88,66,39,28.89,28.57,33,11,41,0.00
2013-3-25,47,37,29,22,18,15,67,49,31,29.07,28.89,29,8,36,0.00
2013-3-26,58,41,27,27,21,15,65,45,29,29.12,28.89,11,3,14,0.00
2013-3-27,72,54,41,40,31,21,50,41,31,28.88,28.72,24,8,30,0.00
2013-3-28,74,61,50,54,47,38,73,60,47,28.83,28.70,15,6,18,0.00
2013-3-29,75,65,57,61,56,52,89,74,61,28.81,28.69,14,5,20,0.00
2013-3-30,85,68,57,62,56,52,89,67,39,28.71,28.55,14,4,17,0.00
2013-3-31,74,62,54,55,48,41,83,61,35,28.72,28.59,19,4,24,32.08
2013-4-1,71,56,45,47,42,37,76,60,41,28.82,28.68,19,4,24,0.01
2013-4-2,45,40,38,39,36,32,91,84,68,28.85,28.76,20,7,26,1.06
2013-4-3,40,38,37,38,36,35,92,91,90,28.90,28.79,16,6,21,1.06
2013-4-4,56,44,36,44,38,34,93,81,61,28.89,28.81,13,3,16,0.02
2013-4-5,66,50,37,47,40,33,89,71,48,28.89,28.60,16,4,20,0.00
2013-4-6,76,61,54,53,49,45,75,65,44,28.61,28.50,19,6,27,34.23
2013-4-7,70,62,54,61,56,49,90,80,71,28.57,28.38,18,5,26,0.00
2013-4-8,81,70,62,65,62,58,87,75,57,28.40,28.28,20,8,25,0.00
2013-4-9,80,65,37,66,56,33,84,73,51,28.58,28.30,28,8,34,0.00
2013-4-10,38,34,32,34,31,29,91,87,81,28.75,28.52,25,4,35,1.74
2013-4-11,61,43,31,39,32,26,84,66,42,28.67,28.46,16,4,21,0.00
2013-4-12,66,52,39,41,36,32,77,58,38,28.75,28.51,14,3,17,0.00
2013-4-13,76,63,47,51,45,37,80,54,37,28.70,28.41,20,7,26,0.07
2013-4-14,84,69,58,60,53,46,72,58,40,28.41,28.19,20,7,25,0.00
2013-4-15,81,67,56,57,45,34,66,46,38,28.53,28.33,20,6,27,0.00
2013-4-16,56,53,51,48,45,41,82,74,57,28.66,28.48,20,4,25,0.00
2013-4-17,79,61,48,69,56,45,93,83,59,28.60,28.22,23,5,29,2.00
2013-4-18,48,42,38,46,34,28,92,75,55,28.83,28.33,32,10,40,0.08
2013-4-19,68,48,35,36,30,25,71,51,29,28.89,28.74,20,6,26,38.12
2013-4-20,72,60,48,37,33,30,55,39,22,28.80,28.65,24,6,30,0.00
2013-4-21,72,62,54,47,41,35,59,47,39,28.85,28.74,19,6,24,0.00
2013-4-22,79,66,53,57,50,42,74,58,46,28.78,28.47,21,6,27,0.48
2013-4-23,63,41,36,57,37,29,90,85,75,28.93,28.54,16,1,20,0.03
2013-4-24,62,45,32,36,32,28,87,62,35,29.01,28.91,2,0,3,38.70
2013-4-25,71,57,40,41,35,31,70,47,25,29.01,28.82,10,0,13,0.00
2013-4-26,68,61,55,59,50,40,90,67,45,28.83,28.56,12,0,15,0.85
2013-4-27,70,59,52,57,53,49,92,79,62,28.83,28.71,2,0,3,39.56
2013-4-28,84,66,50,60,52,46,90,65,30,28.72,28.51,5,0,7,0.00
2013-4-29,89,73,63,61,57,51,85,59,31,28.55,28.41,11,0,14,39.56
2013-4-30,87,75,64,61,57,54,77,56,34,28.49,28.40,12,1,15,0.00
2013-5-1,87,70,46,66,58,40,85,68,46,28.85,28.46,10,0,17,0.00
2013-5-2,48,42,40,40,36,31,89,78,57,29.08,28.85,16,1,20,0.10
2013-5-3,64,51,38,37,32,29,74,52,28,29.05,28.70,9,0,11,0.00
2013-5-4,56,50,42,40,34,28,73,56,37,28.76,28.65,10,0,13,0.00
2013-5-5,64,54,46,50,44,39,79,71,59,28.86,28.76,2,0,2,0.00
2013-5-6,76,61,47,55,50,43,89,69,44,28.83,28.71,1,0,2,0.00
2013-5-7,84,70,58,56,52,50,75,56,34,28.77,28.61,3,0,4,0.00
2013-5-8,86,73,63,63,55,50,85,56,34,28.65,28.51,10,0,13,0.74
2013-5-9,71,66,58,64,60,54,89,83,75,28.67,28.54,3,0,4,0.01
2013-5-10,71,64,58,61,57,52,92,78,60,28.80,28.64,2,0,3,0.01
2013-5-11,80,66,53,59,51,40,87,62,38,28.94,28.79,3,0,3,0.00
2013-5-12,76,61,50,46,41,39,70,50,31,28.95,28.85,4,0,4,0.00
2013-5-14,91,82,67,59,54,45,49,38,25,28.75,28.59,12,0,16,40.42
2013-5-15,75,71,63,67,58,53,89,67,48,28.64,28.48,6,0,6,40.65
2013-5-16,78,67,62,66,61,59,92,83,66,28.55,28.48,2,0,2,0.09
2013-5-17,74,69,63,70,66,59,94,90,86,28.59,28.52,2,0,2,0.00
2013-5-18,91,76,66,77,71,61,94,86,55,28.60,28.38,14,1,14,41.51
2013-5-19,87,78,66,75,69,61,88,73,60,28.47,28.20,9,3,9,0.01
2013-5-20,86,75,68,74,68,65,90,80,66,28.48,28.32,7,2,7,42.24
2013-5-21,72,63,57,65,57,52,91,80,62,28.70,28.46,8,1,8,0.28
2013-5-22,85,69,56,62,57,53,89,68,45,28.64,28.51,6,1,6,0.01
2013-5-23,80,67,60,67,60,56,94,80,60,28.81,28.61,10,1,10,2.70
2013-5-24,84,72,61,73,65,57,90,80,69,28.85,28.75,7,2,7,0.00
2013-5-25,82,73,64,70,65,60,88,78,66,28.85,28.69,8,2,8,0.00
2013-5-26,86,75,68,73,68,64,90,80,63,28.74,28.58,9,2,9,0.00
2013-5-27,84,76,71,71,69,67,88,77,63,28.61,28.39,10,3,10,0.00
2013-5-28,80,76,73,70,68,66,84,75,69,28.48,28.38,9,3,9,0.00
2013-5-29,81,74,65,71,67,61,91,80,70,28.48,28.32,13,3,13,0.00
2013-5-30,88,77,69,74,68,61,87,76,55,28.40,28.31,21,5,21,0.00
2013-5-31,88,78,74,76,71,68,87,79,67,28.45,28.32,16,6,16,0.00
2013-6-1,84,74,66,60,57,55,74,56,41,28.73,28.61,14,2,14,45.23
2013-6-2,78,67,58,57,53,51,78,62,43,28.83,28.68,20,2,20,0.00
2013-6-3,88,72,59,64,59,54,85,66,43,28.72,28.50,14,4,14,0.00
2013-6-4,85,75,65,72,67,62,91,77,65,28.69,28.50,19,4,19,0.00
2013-6-5,86,74,64,72,66,61,94,78,57,28.70,28.53,24,2,24,0.00
2013-6-6,82,71,66,65,60,55,85,70,46,28.69,28.62,11,1,11,0.00
2013-6-7,85,71,59,60,57,54,84,61,42,28.72,28.60,10,1,10,0.00
2013-6-8,84,74,66,64,60,57,75,61,49,28.65,28.46,17,3,17,0.00
2013-6-9,92,76,65,66,62,57,88,63,34,28.65,28.46,15,2,15,0.00
2013-6-10,98,84,71,70,67,61,80,59,34,28.62,28.55,17,4,17,0.00
2013-6-11,95,84,74,71,66,60,67,55,39,28.67,28.57,20,4,20,0.00
2013-6-12,96,80,76,72,68,67,75,68,43,28.66,28.57,14,4,14,0.00
2013-6-13,99,83,76,74,70,68,77,67,42,28.74,28.60,11,1,11,0.00
2013-6-14,96,86,77,73,70,68,76,61,43,28.70,28.61,13,2,13,0.00
2013-6-15,87,81,77,76,71,67,83,72,60,29.93,28.65,18,2,18,0.08
2013-6-16,92,80,76,74,70,68,82,72,51,29.90,29.78,18,3,18,0.00
2013-6-17,87,76,67,72,67,62,88,74,55,29.93,29.69,24,4,24,1.00
2013-6-18,90,76,69,69,65,64,84,70,46,29.95,29.85,14,2,14,1.00
2013-6-19,86,79,72,71,68,64,81,70,60,29.94,29.82,18,4,18,0.00
2013-6-20,95,84,75,74,70,66,83,65,46,29.89,29.79,25,8,25,0.00
2013-6-21,95,85,77,74,69,66,71,59,46,29.92,29.83,28,10,28,0.00
2013-6-22,95,85,77,70,67,64,69,55,39,29.90,29.76,31,11,31,0.00
2013-6-23,93,85,78,70,67,65,69,57,42,29.82,29.75,38,12,38,0.00
2013-6-24,93,85,76,71,68,66,70,57,45,29.90,29.74,30,11,30,0.00
2013-6-25,93,85,78,74,69,65,67,59,51,29.81,29.67,36,12,36,0.00
2013-6-26,98,87,78,75,69,63,64,56,46,29.83,29.69,29,7,29,0.00
2013-6-27,102,89,80,75,70,62,70,55,39,29.98,29.75,47,6,47,0.00
2013-6-28,101,82,76,67,63,62,65,55,31,29.91,29.80,17,3,17,1.00
2013-6-29,95,84,75,66,62,56,65,49,33,29.92,29.77,27,4,27,0.00
2013-6-30,88,78,69,59,56,54,60,48,36,29.94,29.83,1,0,1,0.00
2013-7-1,87,76,32,60,54,50,100,49,32,30.03,29.94,1,0,1,1.00
2013-7-2,90,76,64,57,53,50,61,45,30,30.05,29.94,0,0,0,0.00
2013-7-3,90,77,64,58,54,51,70,47,31,30.00,29.87,0,0,0,0.00
2013-7-4,93,82,72,63,58,52,56,44,31,29.94,29.82,1,0,1,0.00
2013-7-5,93,80,32,68,62,58,100,56,35,29.92,29.77,196,2,196,1.26
2013-7-6,96,83,75,69,63,60,60,52,36,29.87,29.78,26,2,29,0.00
2013-7-7,96,86,77,69,64,60,62,49,36,29.92,29.85,24,7,29,0.00
2013-7-8,99,85,32,72,67,63,69,56,38,29.98,29.89,21,6,26,1.26
2013-7-9,102,90,79,70,67,65,65,50,32,29.96,29.85,27,7,32,0.00
2013-7-10,102,89,80,70,66,61,59,47,32,29.93,29.82,21,4,26,0.00
2013-7-11,100,85,32,74,69,64,100,58,40,29.90,29.80,27,2,40,1.26
2013-7-12,100,88,78,71,69,66,72,54,38,29.89,29.82,17,4,26,0.00
2013-7-13,99,89,80,71,68,66,67,52,39,29.92,29.80,15,5,23,0.00
2013-7-14,87,73,67,68,64,61,87,75,50,29.99,29.83,15,3,23,1.54
2013-7-15,78,69,65,69,64,60,91,84,72,30.06,29.93,14,2,22,1.52
2013-7-16,88,76,32,73,68,65,100,79,56,30.15,30.03,29,4,44,4.91
2013-7-17,89,80,72,75,71,68,88,75,55,30.19,30.10,16,2,24,0.10
2013-7-18,94,82,73,72,69,66,86,66,42,30.12,29.94,15,3,23,0.00
2013-7-19,96,85,74,70,68,65,80,59,39,29.97,29.82,16,3,23,0.00
2013-7-20,82,78,75,71,69,68,79,74,65,29.90,29.85,11,2,16,0.00
2013-7-21,97,86,77,74,70,67,75,60,41,29.82,29.71,16,4,24,0.00
2013-7-22,97,88,79,74,71,68,70,58,45,29.82,29.75,21,5,31,0.00
2013-7-23,99,87,32,75,71,68,100,59,44,29.85,29.71,16,4,23,5.01
2013-7-24,91,82,67,73,70,61,88,67,53,29.96,29.73,24,5,36,1.54
2013-7-25,86,80,74,72,70,67,82,72,61,30.00,29.89,15,2,22,0.03
2013-7-26,86,76,71,72,70,67,90,80,63,29.97,29.83,21,4,32,2.46
2013-7-27,88,78,69,72,68,65,89,72,53,29.98,29.85,12,3,17,0.00
2013-7-28,89,80,75,71,67,65,72,65,49,29.92,29.82,14,5,22,9.03
2013-7-29,91,81,74,76,71,66,82,71,59,29.89,29.78,21,6,31,0.09
2013-7-30,93,81,72,75,71,66,100,73,55,29.97,29.82,25,4,38,10.50
2013-7-31,93,84,77,75,72,69,85,70,49,30.02,29.92,16,2,23,0.00
2013-8-1,95,84,74,74,71,67,83,66,48,30.00,29.86,14,3,21,0.00
2013-8-2,101,89,78,74,71,68,78,58,38,29.87,29.73,17,5,26,0.00
2013-8-3,96,87,32,75,69,65,100,56,48,29.95,29.79,21,4,32,10.50
2013-8-4,98,87,80,75,71,68,71,60,42,29.98,29.83,18,4,28,0.00
2013-8-5,102,89,79,73,69,67,69,53,35,29.87,29.72,23,5,35,0.00
2013-8-6,103,90,79,72,67,63,62,47,31,29.78,29.67,18,5,28,0.00
2013-8-7,95,85,79,75,68,65,100,56,46,29.80,29.72,17,5,26,10.50
2013-8-8,91,81,72,76,72,66,83,74,61,29.90,29.73,24,5,36,1.31
2013-8-9,88,77,71,74,70,67,89,79,60,29.99,29.82,18,2,28,2.30
2013-8-10,88,76,68,70,67,63,84,73,55,30.07,29.95,14,2,21,0.00
2013-8-11,95,81,70,73,69,65,85,69,47,30.03,29.91,11,2,16,0.00
2013-8-12,90,81,32,76,72,67,100,75,56,29.97,29.84,21,2,32,0.60
2013-8-13,76,74,73,72,70,68,90,87,84,29.95,29.88,10,1,15,1.50
2013-8-14,87,76,32,69,66,63,100,70,51,30.03,29.92,13,3,20,16.44
2013-8-15,85,78,32,70,66,62,100,67,59,30.00,29.87,13,3,20,16.44
2013-8-16,85,73,65,68,64,60,88,74,54,30.02,29.90,21,3,31,0.44
2013-8-17,84,75,66,66,63,60,82,67,52,30.06,29.95,16,3,23,0.00
2013-8-18,86,76,67,68,63,59,77,64,51,30.04,29.94,13,2,19,0.00
2013-8-19,91,78,71,69,64,62,74,63,46,30.00,29.89,15,3,23,0.00
2013-8-20,94,82,72,69,64,60,69,55,37,29.97,29.88,15,4,23,0.00
2013-8-21,95,83,72,67,64,61,69,54,36,30.00,29.92,14,4,22,0.00
2013-8-22,95,84,72,72,68,63,74,59,45,30.01,29.88,17,3,25,0.00
2013-8-23,97,85,32,73,69,66,100,59,42,29.95,29.86,19,4,28,16.88
2013-8-24,96,85,76,74,70,67,74,61,44,30.01,29.92,16,4,24,0.00
2013-8-25,95,86,77,72,69,67,100,57,44,30.08,30.00,15,4,23,16.88
2013-8-26,95,85,77,71,68,64,67,57,43,30.10,29.99,13,3,20,0.00
2013-8-27,91,82,74,71,67,62,68,60,52,30.03,29.93,14,3,21,0.00
2013-8-28,96,84,74,72,68,66,75,61,42,29.99,29.90,17,3,26,0.00
2013-8-29,100,86,75,68,66,64,67,52,34,29.98,29.89,13,2,20,0.00
2013-8-30,102,88,76,69,66,64,67,50,31,29.92,29.78,15,3,23,0.00
2013-8-31,104,90,78,68,64,60,59,44,27,29.82,29.71,14,3,21,0.00
2013-9-1,94,83,78,72,64,61,68,52,41,29.85,29.72,13,2,20,0.00
2013-9-2,93,82,74,70,64,58,80,57,34,29.97,29.84,15,3,22,0.00
2013-9-3,94,79,67,64,60,58,74,55,34,29.99,29.89,16,1,23,0.00
2013-9-4,96,81,68,70,62,56,70,54,36,30.03,29.94,14,3,22,0.00
2013-9-5,96,84,73,70,64,60,66,52,37,30.05,29.96,11,2,17,0.00
2013-9-6,98,85,75,68,64,59,60,49,35,30.01,29.89,13,3,19,0.00
2013-9-7,99,86,77,68,64,62,61,49,33,29.94,29.83,11,3,17,0.00
2013-9-8,99,85,79,68,64,60,63,50,32,29.90,29.79,13,2,19,0.00
2013-9-9,97,85,74,67,61,57,64,47,31,29.91,29.81,18,4,28,0.00
2013-9-10,94,84,75,66,62,59,65,49,35,30.01,29.87,18,5,27,0.00
2013-9-11,96,82,72,67,60,56,62,49,35,30.06,29.93,11,2,17,0.00
2013-9-12,88,78,32,69,65,62,78,63,51,30.01,29.96,7,1,11,16.92
2013-9-13,80,75,71,69,65,55,81,71,52,29.98,29.86,14,4,22,0.13
2013-9-14,83,72,68,63,56,52,67,58,49,29.94,29.84,16,4,24,0.00
2013-9-15,92,80,71,67,62,55,61,54,42,29.95,29.85,14,3,22,0.00
2013-9-16,91,79,72,71,68,65,83,69,51,30.07,29.93,18,3,28,0.13
2013-9-17,91,76,71,70,68,65,86,75,50,30.02,29.85,38,2,57,0.57
2013-9-18,95,80,32,70,66,60,100,65,35,29.90,29.77,18,4,28,17.76
2013-9-19,88,78,73,70,66,64,79,67,54,29.90,29.79,22,4,34,0.04
2013-9-20,73,69,60,66,60,52,84,74,58,29.93,29.81,11,2,16,0.01
2013-9-21,83,62,56,56,52,51,83,73,34,29.95,29.83,19,1,29,0.00
2013-9-22,85,69,55,53,50,48,78,55,32,29.87,29.72,14,2,21,0.00
2013-9-23,87,72,60,56,52,48,69,50,33,29.77,29.65,17,4,26,0.00
2013-9-24,88,73,63,53,49,43,64,45,22,29.88,29.77,24,4,36,0.00
2013-9-25,92,73,58,60,53,48,78,53,30,29.83,29.67,15,2,22,0.00
2013-9-26,95,80,68,62,56,50,55,44,32,29.77,29.67,21,5,32,17.81
2013-9-27,91,80,69,67,62,55,70,54,42,29.83,29.70,18,6,28,0.00
2013-9-28,79,69,32,69,59,48,87,70,53,30.01,29.72,19,6,29,19.26
2013-9-29,79,63,51,53,49,45,83,63,34,30.01,29.84,13,1,19,0.00
2013-9-30,86,68,54,57,52,47,79,59,35,29.85,29.71,17,2,26,0.00
2013-10-1,91,72,63,66,58,50,80,61,41,29.84,29.74,16,4,23,0.00
2013-10-2,88,77,71,70,67,63,86,71,52,29.87,29.74,16,5,23,0.00
2013-10-3,92,80,72,71,67,65,84,66,42,29.78,29.64,25,8,38,0.00
2013-10-4,87,79,69,70,67,62,82,67,52,29.85,29.66,34,7,52,0.53
2013-10-5,69,57,52,62,43,38,81,60,39,30.03,29.83,22,5,34,1.02
2013-10-6,72,58,49,43,38,32,71,49,28,30.02,29.92,25,5,37,0.00
2013-10-7,79,60,48,46,42,39,72,54,29,30.08,29.97,11,1,16,0.00
2013-10-8,82,62,52,51,45,41,68,56,30,29.99,29.87,14,3,22,0.00
2013-10-9,83,68,58,55,51,48,72,56,35,29.94,29.85,19,5,28,0.00
2013-10-10,83,68,60,62,54,51,75,62,45,29.92,29.72,22,5,33,0.00
2013-10-11,88,74,66,65,59,51,80,61,33,29.76,29.67,21,6,32,0.00
2013-10-12,76,67,59,65,52,47,81,59,43,30.05,29.75,17,3,26,0.00
2013-10-13,73,68,61,63,57,49,81,69,60,30.14,30.04,14,3,21,0.00
2013-10-14,70,67,64,67,63,61,91,87,81,30.06,29.77,15,5,23,0.75
2013-10-15,76,58,52,67,52,43,100,80,58,30.02,29.77,29,5,43,1.46
2013-10-16,57,51,46,44,41,38,81,69,57,30.06,29.96,17,3,26,0.01
2013-10-17,72,54,32,49,44,37,85,68,41,29.97,29.86,12,1,17,0.00
2013-10-18,55,48,40,47,42,35,86,79,74,30.08,29.89,21,3,31,0.07
2013-10-19,73,49,36,44,38,32,100,67,37,30.07,29.90,18,3,27,23.11
2013-10-20,71,54,46,49,41,37,71,61,45,29.90,29.71,18,3,27,23.11
2013-10-21,66,56,48,48,42,38,78,62,37,30.01,29.80,12,2,18,0.00
2013-10-22,76,58,46,47,42,38,73,58,32,30.01,29.91,21,3,32,0.00
2013-10-23,140,59,48,53,45,40,77,62,42,30.03,29.85,13,2,20,23.11
2013-10-24,63,53,48,47,42,35,77,67,43,30.26,29.97,21,2,32,0.00
2013-10-25,66,52,42,45,38,31,66,58,46,30.31,30.09,13,3,19,0.00
2013-10-26,64,55,52,57,46,40,87,73,60,30.09,29.97,15,3,22,0.07
2013-10-27,70,56,42,52,42,36,82,63,35,30.03,29.85,11,2,16,0.00
2013-10-28,65,60,56,61,55,52,88,84,81,29.97,29.87,15,4,571,23.18
2013-10-29,75,70,66,67,65,61,88,82,77,29.90,29.81,22,4,571,0.00
2013-10-30,75,70,67,69,65,63,88,84,79,29.86,29.63,21,7,32,0.00
2013-10-31,68,61,51,63,51,42,90,70,41,29.73,29.49,34,6,52,0.15
2013-11-1,70,56,46,47,42,39,81,62,40,30.00,29.71,25,3,37,0.00
2013-11-2,64,52,45,39,35,33,67,53,34,30.20,30.00,19,3,28,0.00
2013-11-3,62,54,46,42,37,32,67,53,44,30.06,29.79,21,5,32,0.00
2013-11-4,64,58,52,54,50,42,81,74,58,29.94,29.77,21,6,32,0.01
2013-11-5,66,60,47,62,56,44,90,87,80,29.94,29.76,24,6,36,0.54
2013-11-6,54,46,40,44,38,34,88,75,56,30.25,29.92,31,5,46,0.03
2013-11-7,66,50,37,42,37,32,83,64,38,30.34,30.21,13,2,20,0.01
2013-11-8,65,55,44,39,35,32,69,50,30,30.21,29.89,27,7,40,0.00
2013-11-9,69,57,49,47,43,36,71,60,45,30.12,29.91,15,3,23,0.00
2013-11-10,65,56,53,52,48,44,77,72,62,30.24,30.12,11,1,17,0.00
2013-11-11,71,58,44,58,50,36,82,75,62,30.35,30.04,27,4,40,0.00
2013-11-12,68,39,31,37,25,15,78,60,33,30.63,30.35,21,6,32,0.00
2013-11-13,52,38,26,25,20,16,69,50,29,30.55,30.14,18,4,28,0.00
2013-11-14,56,43,36,38,28,24,68,55,38,30.14,29.84,24,5,36,0.02
2013-11-15,65,55,45,52,44,38,80,68,51,29.84,29.63,19,4,28,0.00
2013-11-16,75,66,58,59,56,52,82,70,52,29.63,29.43,24,8,36,0.02
2013-11-17,71,64,52,58,43,26,76,49,28,30.02,29.44,26,5,40,0.00
2013-11-18,64,53,44,35,29,24,51,40,31,30.13,30.00,16,4,24,23.96
2013-11-19,62,55,32,37,34,27,100,44,29,30.07,29.82,21,5,31,0.00
2013-11-20,62,56,53,49,40,30,72,56,40,29.83,29.69,27,7,40,0.00
2013-11-21,67,50,31,62,44,26,85,81,72,30.28,29.76,28,8,42,0.00
2013-11-22,31,30,28,26,24,21,83,78,71,30.43,30.27,29,9,43,0.01
2013-11-23,41,35,30,25,23,16,80,62,46,30.52,30.39,20,7,29,0.03
2013-11-24,32,28,26,22,18,14,76,64,53,30.51,30.17,15,4,22,24.01
2013-11-25,36,30,29,30,25,22,100,80,75,30.18,30.06,11,2,16,24.11
2013-11-26,46,38,31,32,27,20,100,66,50,30.29,30.05,24,6,36,0.10
2013-11-27,41,32,23,20,17,14,69,55,39,30.33,30.13,13,3,20,0.00
2013-11-28,58,42,34,35,26,19,61,53,40,30.27,30.11,19,3,28,0.00
2013-11-29,57,45,31,34,29,23,73,56,40,30.30,30.11,26,4,38,0.00
2013-11-30,60,47,32,47,39,33,100,72,59,30.12,29.97,15,5,23,0.00
2013-12-1,59,48,43,49,42,38,87,79,68,29.98,29.78,12,1,18,0.00
2013-12-2,62,49,39,49,42,36,91,79,55,29.79,29.53,15,2,23,0.01
2013-12-3,64,52,43,50,44,39,88,74,55,29.53,29.38,15,2,23,0.00
2013-12-4,50,41,30,43,32,18,83,71,61,29.93,29.38,31,8,47,0.00
2013-12-5,30,24,20,19,13,10,78,65,53,30.14,29.93,26,8,38,0.00
2013-12-6,24,20,16,15,12,5,82,71,61,30.41,30.10,19,7,28,0.17
2013-12-7,32,17,10,13,8,2,100,66,61,30.47,29.63,15,5,23,24.45
2013-12-8,36,25,21,27,19,12,82,78,66,30.05,29.36,13,3,20,0.05
2013-12-9,28,24,18,22,17,11,80,74,69,30.27,29.56,19,5,29,0.05
2013-12-10,38,26,14,25,17,8,78,69,57,30.28,29.59,17,3,28,0.08
2013-12-11,39,32,24,27,21,17,78,66,57,30.46,29.59,21,4,32,0.05
2013-12-12,70,30,22,29,21,16,78,70,62,30.46,29.57,20,2,29,0.05
2013-12-13,51,42,37,41,36,29,86,78,66,30.06,29.13,26,7,38,0.08
2013-12-14,42,35,30,39,28,23,89,76,62,30.15,29.22,27,6,42,0.05
2013-12-15,60,42,28,35,28,22,80,60,34,30.15,29.52,23,3,34,0.05
2013-12-16,66,49,34,38,32,26,74,53,31,30.04,29.47,14,2,22,0.05
2013-12-17,62,48,37,33,29,26,69,49,28,30.19,29.55,19,3,36,0.05
2013-12-18,68,53,37,44,34,25,68,51,33,30.13,29.26,24,6,40,0.05
2013-12-19,66,59,53,52,49,44,80,70,59,29.74,29.03,33,10,50,0.05
2013-12-20,59,35,29,52,27,19,85,74,65,29.87,29.08,31,7,47,0.09
2013-12-21,32,31,29,29,27,25,88,86,85,29.72,28.98,0,0,0,0.05
2013-12-22,29,27,22,26,22,18,86,83,81,30.24,29.21,0,0,0,0.05
2013-12-23,30,25,20,26,21,16,87,83,82,30.44,29.73,0,0,0,0.06
2013-12-24,40,32,25,35,27,20,86,82,77,30.41,29.68,17,1,26,0.21
2013-12-25,40,33,29,34,29,26,92,86,77,30.29,30.11,14,3,21,0.01
2013-12-26,53,39,26,37,29,22,89,69,44,30.27,30.14,15,2,22,0.00
2013-12-27,72,40,31,37,29,25,79,67,36,30.26,30.15,20,2,29,24.73
2013-12-28,59,45,34,42,33,25,78,64,43,30.15,29.79,21,3,32,0.00
2013-12-29,43,30,22,39,21,9,86,70,56,30.17,29.79,28,8,42,0.00
2013-12-30,39,27,18,20,14,8,66,56,43,30.24,30.09,12,2,18,0.00
2013-12-31,54,34,27,32,22,19,74,63,37,30.23,29.97,21,3,32,0.00
2014-1-1,52,37,21,36,26,13,73,63,53,30.17,29.75,32,9,48,0.00
2014-1-2,38,26,17,23,16,9,75,65,53,30.34,30.16,28,4,42,0.00